User: anonymous   Login
Location: Champaign/Urbana Astronomical Society Observatory
(40.0333°N, 88.2833°W)
Time: 20:44:57
(UTC-05:00)
Language:

XW-2D - Orbit

View from above orbital plane
View from above orbital plane
View from above satellite
View from above satellite

Ground track
Ground track

The orbit data is extracted from the following two-line orbital elements,

1 40907U 15049J   19141.85970291  .00000755  00000-0  42956-4 0  9993
2 40907  97.4649 144.0788 0012617 297.1209 182.1057 15.15826492202797
Epoch (UTC): 21 May 2019 20:37:58
Eccentricity: 0.0012617
inclination: 97.4649°
perigee height: 510 km
apogee height: 527 km
right ascension of ascending node: 144.0788°
argument of perigee: 297.1209°
revolutions per day: 15.15826492
mean anomaly at epoch: 182.1057°
orbit number at epoch: 20279

The dashed part of the orbit path shows where the satellite is in the earth's shadow,  

DLR